Weather History for Jackson, MI

Change the Weather History Date:

Friday, April 18, 2014

  Actual Average Record
Temperature  
Mean Temperature 54 °F 49 °F  
Max Temperature 65 °F 60 °F 88 °F (1977)
Min Temperature 42 °F 38 °F 21 °F (1983)
Degree Days  
Heating Degree Days 11 16  
Month to date heating degree days 357 351  
Since 1 July heating degree days 7096 6175  
Cooling Degree Days 0 0  
Month to date cooling degree days 0 0  
Year to date cooling degree days 0 0  
Growing Degree Days 4 (Base 50)    
Moisture  
Dew Point 40 °F    
Average Humidity 63    
Maximum Humidity 93    
Minimum Humidity 32    
Precipitation  
Precipitation 0.04 in 0.10 in 1.26 in (1975)
Month to date precipitation 1.50 1.56  
Year to date precipitation 7.69 6.24  
Sea Level Pressure  
Sea Level Pressure 30.27 in    
Wind  
Wind Speed 6 mph (NW)    
Max Wind Speed 15 mph    
Max Gust Speed 20 mph    
Visibility 8 miles    
Events Rain    
T = Trace of Precipitation, MM = Missing Value Source: NWS Daily Summary

Daily Weather History Graph

Daily Weather History Graph

Search for Another Location

Airport:

Trip Planner

Search our weather history database for the weather conditions in past years. The results will help you decide how hot, cold, wet, or windy it might be!

Date:

Astronomy

Apr. 18, 2014 Rise Set
Actual Time 6:52 AM EDT 8:22 PM EDT
Civil Twilight 6:22 AM EDT 8:52 PM EDT
Nautical Twilight 5:47 AM EDT 9:27 PM EDT
Astronomical Twilight 5:09 AM EDT 10:05 PM EDT
Moon No Moon Rise 9:11 AM EDT (4/18)
Length of Visible Light 14h 29m
Length of Day
13h 30m
Waning Gibbous, 87% of the Moon is Illuminated
Apr 18
Waning Gibbous
Apr 22
Last Quarter
Apr 29
New
May 6
First Quarter
May 14
Full

Hourly Weather History & Observations

Time (EDT) Temp. Windchill Dew Point Humidity Pressure Visibility Wind Dir Wind Speed Gust Speed Precip Events Conditions
12:56 AM 52.0 °F - 35.1 °F 53% 30.24 in 10.0 mi Calm Calm - N/A   Mostly Cloudy
1:56 AM 50.0 °F - 37.9 °F 63% 30.25 in 10.0 mi Calm Calm - N/A   Overcast
2:56 AM 46.9 °F - 39.9 °F 77% 30.25 in 10.0 mi Calm Calm - N/A   Overcast
3:56 AM 48.0 °F - 39.0 °F 71% 30.24 in 10.0 mi NNW 8.1 mph - 0.00 in   Overcast
4:56 AM 46.0 °F 44.8 °F 39.9 °F 79% 30.24 in 7.0 mi North 3.5 mph - N/A   Overcast
5:56 AM 46.0 °F 44.8 °F 42.1 °F 86% 30.25 in 5.0 mi South 3.5 mph - 0.01 in Rain Light Rain
6:56 AM 46.0 °F 44.8 °F 44.1 °F 93% 30.26 in 5.0 mi South 3.5 mph - 0.02 in   Overcast
7:56 AM 46.0 °F - 44.1 °F 93% 30.27 in 4.0 mi Calm Calm - 0.00 in   Overcast
8:09 AM 46.0 °F - 44.1 °F 93% 30.27 in 2.0 mi Calm Calm - 0.01 in   Overcast
8:23 AM 46.0 °F - 45.0 °F 96% 30.27 in 3.0 mi Calm Calm - 0.01 in   Overcast
8:36 AM 46.9 °F - 45.0 °F 93% 30.27 in 2.5 mi Calm Calm - 0.01 in   Overcast
8:46 AM 46.9 °F - 45.0 °F 93% 30.27 in 3.0 mi Calm Calm - 0.01 in   Overcast
8:56 AM 46.9 °F - 44.1 °F 90% 30.28 in 3.0 mi Calm Calm - 0.01 in   Overcast
9:38 AM 48.9 °F - 46.0 °F 90% 30.27 in 5.0 mi WNW 5.8 mph - N/A   Overcast
9:56 AM 48.9 °F - 46.0 °F 90% 30.28 in 5.0 mi NW 5.8 mph - N/A   Overcast
10:20 AM 48.9 °F - 45.0 °F 86% 30.27 in 5.0 mi NNW 4.6 mph - N/A   Mostly Cloudy
10:31 AM 50.0 °F - 46.0 °F 86% 30.27 in 5.0 mi Calm Calm - N/A   Scattered Clouds
10:56 AM 52.0 °F - 46.0 °F 80% 30.28 in 7.0 mi Variable 3.5 mph - N/A   Scattered Clouds
11:56 AM 55.0 °F - 43.0 °F 64% 30.28 in 10.0 mi WNW 3.5 mph - N/A   Partly Cloudy
12:56 PM 59.0 °F - 41.0 °F 51% 30.28 in 10.0 mi Variable 4.6 mph - N/A   Mostly Cloudy
1:56 PM 61.0 °F - 37.9 °F 42% 30.27 in 10.0 mi North - - N/A   Scattered Clouds
2:56 PM 63.0 °F - 35.1 °F 35% 30.27 in 10.0 mi NW 11.5 mph 18.4 mph N/A   Partly Cloudy
3:56 PM 63.0 °F - 34.0 °F 34% 30.25 in 10.0 mi North 5.8 mph - N/A   Scattered Clouds
4:56 PM 61.0 °F - 30.9 °F 32% 30.25 in 10.0 mi West 10.4 mph 18.4 mph N/A   Clear
5:56 PM 63.0 °F - 34.0 °F 34% 30.24 in 10.0 mi NW 9.2 mph - N/A   Partly Cloudy
6:56 PM 61.0 °F - 34.0 °F 36% 30.25 in 10.0 mi NW 9.2 mph - N/A   Partly Cloudy
7:56 PM 55.9 °F - 30.0 °F 37% 30.25 in 10.0 mi NW 10.4 mph - N/A   Clear
8:56 PM 50.0 °F - 33.1 °F 52% 30.28 in 10.0 mi NW 5.8 mph - N/A   Clear
9:56 PM 48.0 °F - 33.1 °F 56% 30.31 in 10.0 mi NW 6.9 mph - N/A   Clear
10:56 PM 45.0 °F 43.5 °F 33.1 °F 63% 30.32 in 10.0 mi NW 3.5 mph - N/A   Clear
11:56 PM 45.0 °F 38.5 °F 33.1 °F 63% 30.34 in 10.0 mi NNE 13.8 mph - N/A   Clear